Wind_Speed
22 23 22 22 23 23 25 26 27 28 27 27 27 27 25 21 16 15 16 17 16 16 17 18 17 14 13 12 11 10 10 10 11 11 12 13 14 16 19 20 22 23
23 23 23 23 23 23 24 26 27 27 28 28 27 25 23 19 15 15 17 19 18 17 17 17 15 14 13 11 10 10 10 11 12 12 12 14 16 18 20 21 22 24
23 23 23 23 23 23 25 26 27 27 27 27 27 26 24 19 16 17 19 18 15 13 14 14 13 12 11 10 10 11 11 12 12 12 13 15 17 19 21 22 23 24
23 23 22 22 22 23 24 25 26 27 25 24 24 23 20 16 15 15 14 12 10 10 11 11 10 9 9 10 11 11 12 12 12 13 15 16 19 21 22 23 24 25
22 22 22 22 22 23 24 25 26 25 24 22 19 14 10 10 11 11 10 10 10 10 9 8 8 9 10 11 11 12 13 13 14 15 16 18 20 22 23 24 25 26
21 21 21 21 22 23 24 25 25 23 22 20 14 9 8 9 10 11 10 10 9 8 7 7 8 10 11 12 12 13 13 14 15 17 18 20 21 23 24 25 26 27
19 19 19 20 22 23 24 23 21 19 18 16 12 10 10 11 11 10 9 8 7 7 7 8 10 11 12 12 13 14 15 16 17 18 19 21 22 24 25 26 27 28
17 17 18 20 21 22 21 20 18 17 16 15 14 13 13 12 10 9 8 7 7 8 8 9 11 11 12 13 14 15 16 17 18 19 21 22 24 25 26 27 28 28
17 17 18 19 19 20 19 17 17 17 17 16 14 13 12 10 9 8 8 8 8 9 10 10 11 12 13 14 15 16 17 18 20 21 22 24 25 27 28 28 28 29
17 17 17 17 17 18 17 16 17 17 16 15 13 11 10 9 9 8 9 9 9 10 10 11 12 13 14 15 16 17 19 20 22 23 25 26 27 28 29 29 29 30
17 16 16 16 16 16 16 16 15 15 14 13 11 10 9 9 9 9 10 10 10 11 12 13 14 15 16 17 18 19 20 22 23 25 26 27 28 29 29 29 30 31
16 16 15 15 16 16 16 16 15 13 12 11 10 10 9 10 10 11 11 11 12 12 14 15 16 17 17 18 19 21 22 24 25 26 27 28 29 30 30 30 31 32
16 16 16 16 15 15 15 15 14 12 11 10 10 10 10 11 12 12 13 13 13 14 15 17 18 18 19 20 22 23 24 26 27 28 29 30 31 32 31 31 31 33
17 17 17 16 15 15 15 14 13 12 11 11 11 11 11 12 13 14 14 14 15 16 17 19 20 21 22 23 24 26 27 29 30 31 32 33 34 34 33 32 31 32
17 17 17 16 15 15 14 13 13 13 12 12 12 13 13 14 15 15 15 16 17 18 20 21 22 23 24 25 27 28 29 30 31 32 33 34 35 35 35 34 32 32
17 17 17 17 16 15 14 13 13 13 13 13 14 15 15 16 17 17 17 19 20 21 22 22 23 24 25 27 28 29 30 31 33 34 36 37 36 35 35 34 31 31
18 18 18 17 17 16 15 14 14 14 14 15 16 17 17 17 18 19 19 20 21 22 22 23 23 25 26 27 28 29 31 32 33 34 37 36 32 29 28 28 28 29
18 18 18 18 17 17 16 15 15 15 15 16 17 18 19 19 20 20 21 21 22 22 22 23 24 25 26 27 28 29 29 29 29 30 31 28 25 23 23 24 26 28
18 18 18 18 18 17 17 16 16 16 17 17 18 19 20 20 21 21 21 22 22 23 23 24 25 25 26 27 28 28 27 26 26 26 25 24 22 22 23 25 26 27
18 18 19 19 18 17 17 17 17 17 18 18 19 20 21 21 22 22 22 23 23 23 24 24 25 26 26 27 27 27 27 27 26 25 23 22 22 22 24 26 26 27
18 19 19 19 18 18 18 18 18 18 19 19 20 21 22 22 22 22 23 23 23 24 24 25 25 26 27 27 27 27 27 27 26 24 22 22 23 23 25 26 26 26
19 19 19 19 18 19 19 19 19 19 20 20 21 22 23 23 23 23 24 23 23 24 25 25 25 26 27 27 27 27 27 27 25 23 22 23 24 25 26 26 26 25
19 19 19 19 19 20 20 21 21 21 21 22 22 23 23 24 24 23 23 23 24 25 25 25 25 26 27 27 27 27 27 27 25 23 23 25 26 26 26 26 25 25
20 20 20 21 21 22 22 23 23 22 22 22 23 24 24 24 23 23 24 24 24 25 26 25 26 27 28 28 27 27 27 27 25 24 25 27 27 27 27 26 26 26
22 22 23 23 23 24 24 24 24 23 23 24 24 24 24 24 24 24 24 25 25 26 27 27 27 28 29 29 28 27 27 27 26 26 27 28 28 28 28 27 27 27
23 24 24 25 25 25 24 24 24 24 24 25 25 24 24 24 25 25 25 26 26 27 27 27 28 29 29 29 29 28 27 28 28 28 29 29 29 29 29 29 28 28
Wind_Direction
274 277 280 283 283 283 286 288 289 290 289 291 291 290 287 278 269 267 263 263 264 262 258 253 250 251 254 261 267 271 275 280 285 289 295 303 308 310 310 311 312 313
275 279 283 285 285 285 287 287 286 287 289 290 288 288 285 276 268 270 268 265 264 261 256 251 250 254 257 262 267 268 273 279 283 290 297 302 305 307 308 310 310 310
277 281 284 284 285 287 287 285 285 286 289 290 287 284 279 271 269 270 266 263 261 257 253 250 251 253 254 260 265 268 274 279 284 292 297 300 303 306 308 308 307 308
280 283 284 283 285 285 284 284 284 285 287 290 291 284 273 265 269 270 266 264 261 255 252 248 248 252 257 263 268 272 277 280 287 293 297 300 303 306 307 307 306 307
281 283 282 282 284 283 282 283 282 282 283 288 292 286 269 262 266 268 271 271 262 253 247 246 251 259 265 270 274 277 280 285 291 295 298 300 303 306 307 305 306 307
280 281 279 280 281 281 281 281 281 279 279 282 283 280 273 270 269 271 272 265 253 246 248 254 261 266 271 276 279 282 285 290 294 296 298 301 304 306 306 306 307 308
281 278 277 278 278 279 279 278 277 273 271 272 276 282 282 278 275 271 264 254 250 253 259 264 269 274 279 284 287 289 291 292 294 296 299 302 305 306 306 307 308 309
282 278 277 277 277 277 275 272 269 264 263 268 277 284 282 276 270 261 253 253 256 261 266 271 277 284 288 290 291 291 292 292 294 296 299 302 304 305 306 307 309 311
281 279 276 275 276 275 271 266 261 259 263 269 276 277 273 266 259 254 255 257 260 266 273 279 285 289 291 292 293 292 292 293 294 296 298 301 302 303 305 307 309 311
279 276 272 270 272 271 267 263 260 260 263 267 269 266 261 259 257 259 261 263 267 274 279 285 288 290 293 294 295 294 294 294 294 297 299 300 301 302 303 305 308 310
278 271 266 266 269 268 265 262 260 260 261 261 260 259 258 261 262 265 268 269 275 280 284 287 288 291 294 296 296 296 296 296 297 298 299 299 300 301 303 305 307 310
277 266 262 265 267 265 261 260 257 256 255 254 254 255 258 264 267 268 271 275 280 284 286 286 286 289 292 295 297 297 297 297 297 297 297 298 299 300 302 304 306 308
272 261 260 264 264 260 256 254 253 250 248 248 251 255 259 263 266 267 271 276 280 282 283 282 283 286 290 293 294 294 294 294 294 295 296 297 298 299 300 302 304 305
265 256 256 259 258 255 251 250 250 247 245 247 251 255 258 261 264 267 271 275 277 278 279 280 282 285 288 290 290 291 291 292 294 295 297 297 298 299 300 300 301 303
259 252 253 255 254 252 250 250 251 249 248 249 251 254 256 260 264 267 270 273 275 276 278 280 283 286 288 289 289 290 292 293 296 297 297 297 298 299 301 301 300 301
252 249 250 251 250 250 250 250 252 252 253 253 253 255 257 260 264 267 270 272 274 277 280 283 286 288 289 290 291 293 294 295 296 297 296 296 299 302 305 304 300 298
248 247 248 249 249 249 249 250 252 254 256 257 258 259 261 263 267 269 271 274 276 279 283 286 287 288 290 292 294 294 295 296 299 298 298 299 302 303 303 300 294 293
246 246 249 250 250 250 249 250 252 254 257 259 261 263 265 267 270 272 273 276 279 281 285 286 287 289 293 295 296 296 297 299 301 301 301 300 298 295 293 292 289 291
246 247 250 251 252 251 251 251 253 255 257 259 261 264 266 268 271 273 276 278 280 283 285 286 288 292 296 297 299 300 300 301 301 301 300 296 293 292 290 289 289 292
247 249 252 253 253 252 252 253 254 256 257 260 262 265 267 270 273 275 278 280 282 284 285 287 290 295 297 297 300 302 302 300 300 299 298 295 294 292 288 287 289 292
247 249 250 251 252 253 254 255 256 257 259 261 263 266 269 272 275 278 280 281 283 285 285 288 293 296 297 298 300 301 301 298 297 295 293 293 293 291 287 287 289 291
244 248 250 251 252 254 255 257 258 259 260 261 264 267 270 273 277 279 280 282 284 285 287 291 295 296 297 298 300 300 300 297 293 290 290 292 293 290 287 287 288 291
246 249 252 253 255 256 258 259 259 259 260 262 265 267 270 274 276 278 280 282 284 286 289 293 295 296 297 298 299 299 298 295 290 286 288 292 292 289 287 287 289 293
252 255 257 258 259 259 259 260 260 260 261 263 265 267 270 273 275 277 280 282 285 287 290 293 295 296 297 297 297 297 295 291 286 283 287 291 291 289 288 288 290 292
260 260 261 262 261 260 260 260 260 261 262 264 266 268 270 271 273 275 279 282 285 287 290 293 294 294 295 295 295 295 292 288 284 283 286 290 289 288 287 288 290 291
263 263 263 263 262 261 261 260 260 261 262 264 266 266 267 269 272 276 280 284 287 290 293 295 294 293 293 293 293 293 290 286 282 282 285 287 287 286 286 288 289 289
Height
5802 5802 5803 5803 5803 5802 5802 5801 5800 5800 5800 5799 5799 5798 5798 5798 5798 5798 5798 5799 5799 5800 5801 5801 5802 5803 5804 5804 5804 5804 5804 5804 5804 5804 5804 5803 5803 5802 5802 5801 5799 5798
5800 5800 5801 5800 5800 5800 5799 5799 5798 5797 5797 5797 5796 5796 5796 5796 5796 5796 5796 5797 5797 5798 5799 5800 5801 5802 5802 5802 5802 5802 5802 5802 5802 5802 5802 5801 5801 5800 5799 5798 5797 5796
5797 5798 5798 5798 5797 5797 5797 5796 5795 5795 5795 5794 5794 5793 5794 5794 5794 5795 5795 5795 5795 5797 5798 5799 5800 5800 5800 5800 5801 5801 5801 5801 5800 5800 5800 5799 5799 5798 5797 5796 5795 5794
5794 5795 5795 5795 5795 5795 5794 5794 5793 5793 5793 5792 5792 5790 5790 5792 5793 5793 5794 5794 5795 5796 5797 5797 5798 5798 5798 5799 5799 5799 5799 5799 5799 5798 5798 5798 5797 5796 5795 5794 5793 5792
5792 5793 5793 5793 5793 5793 5792 5792 5791 5791 5791 5790 5790 5789 5789 5791 5792 5792 5792 5793 5794 5794 5795 5795 5796 5796 5797 5797 5797 5797 5797 5797 5797 5797 5796 5796 5795 5794 5793 5792 5791 5790
5790 5790 5790 5791 5791 5790 5790 5790 5789 5789 5789 5789 5789 5788 5789 5790 5791 5791 5791 5791 5792 5792 5793 5793 5794 5795 5795 5796 5796 5796 5795 5795 5795 5795 5794 5794 5793 5792 5791 5790 5788 5787
5787 5788 5788 5788 5788 5788 5788 5788 5787 5787 5788 5788 5787 5787 5788 5789 5789 5789 5789 5790 5790 5791 5791 5792 5793 5793 5794 5794 5794 5794 5794 5793 5793 5793 5792 5791 5791 5790 5788 5787 5786 5784
5785 5785 5786 5786 5786 5786 5786 5786 5786 5786 5786 5786 5786 5786 5787 5787 5787 5787 5788 5788 5789 5789 5790 5791 5791 5791 5792 5792 5792 5792 5791 5791 5791 5790 5790 5789 5788 5787 5786 5784 5783 5781
5783 5783 5784 5784 5784 5783 5784 5784 5784 5785 5785 5785 5785 5785 5785 5785 5786 5786 5786 5787 5788 5788 5789 5789 5789 5789 5790 5790 5790 5789 5789 5789 5788 5788 5787 5786 5785 5784 5783 5782 5780 5779
5781 5782 5782 5782 5782 5782 5782 5782 5782 5783 5783 5783 5783 5783 5783 5784 5784 5785 5785 5786 5786 5787 5787 5787 5787 5788 5788 5788 5787 5787 5787 5786 5786 5785 5784 5783 5783 5781 5780 5779 5778 5776
5779 5780 5780 5780 5780 5780 5780 5780 5781 5781 5781 5781 5781 5781 5782 5782 5783 5783 5784 5784 5785 5785 5785 5785 5785 5786 5786 5785 5785 5785 5784 5784 5783 5782 5781 5781 5780 5778 5777 5776 5775 5773
5777 5777 5778 5778 5778 5778 5779 5779 5779 5779 5779 5779 5779 5780 5780 5780 5781 5782 5782 5782 5783 5783 5783 5783 5783 5784 5783 5783 5783 5782 5782 5781 5780 5779 5778 5778 5777 5775 5774 5773 5772 5770
5775 5775 5775 5776 5776 5777 5777 5777 5777 5777 5777 5777 5777 5777 5778 5779 5779 5780 5780 5781 5781 5781 5781 5781 5781 5781 5781 5781 5780 5779 5779 5778 5777 5776 5775 5774 5773 5772 5771 5770 5768 5767
5773 5773 5774 5774 5775 5775 5775 5775 5775 5775 5775 5775 5775 5776 5776 5777 5777 5778 5778 5779 5779 5779 5779 5779 5779 5779 5779 5778 5777 5777 5776 5775 5774 5773 5772 5771 5770 5768 5767 5766 5765 5764
5770 5771 5772 5772 5773 5773 5773 5773 5772 5773 5773 5773 5773 5774 5775 5775 5775 5776 5776 5777 5777 5777 5777 5777 5777 5776 5776 5775 5775 5774 5773 5772 5771 5770 5769 5767 5766 5765 5763 5763 5761 5760
5768 5769 5769 5770 5770 5770 5770 5770 5770 5770 5771 5771 5772 5772 5773 5773 5774 5774 5774 5774 5775 5775 5775 5775 5774 5774 5773 5773 5772 5771 5770 5769 5768 5766 5765 5763 5762 5761 5760 5759 5758 5757
5765 5766 5767 5768 5768 5768 5768 5768 5768 5769 5769 5770 5770 5770 5771 5771 5772 5772 5772 5772 5772 5772 5772 5772 5772 5771 5770 5770 5769 5768 5767 5765 5764 5762 5761 5759 5758 5757 5756 5755 5754 5753
5762 5764 5765 5765 5765 5766 5766 5766 5766 5767 5768 5768 5768 5769 5769 5769 5770 5770 5770 5770 5770 5770 5770 5770 5769 5768 5768 5767 5766 5765 5763 5762 5760 5759 5758 5756 5755 5754 5753 5752 5751 5750
5760 5761 5761 5762 5763 5763 5764 5764 5765 5765 5766 5766 5766 5767 5767 5767 5767 5768 5768 5768 5768 5768 5767 5767 5766 5765 5765 5764 5762 5761 5760 5759 5758 5756 5755 5754 5752 5751 5750 5749 5748 5747
5757 5758 5758 5759 5760 5760 5761 5762 5762 5763 5763 5764 5764 5764 5765 5765 5765 5765 5766 5766 5765 5765 5765 5764 5763 5762 5762 5760 5759 5758 5757 5755 5754 5753 5752 5751 5750 5749 5747 5747 5746 5745
5754 5754 5755 5756 5757 5757 5758 5759 5760 5760 5761 5761 5761 5762 5762 5762 5763 5763 5763 5763 5763 5762 5761 5761 5760 5759 5758 5757 5756 5755 5754 5752 5751 5750 5749 5748 5747 5746 5745 5744 5743 5742
5751 5751 5752 5753 5754 5755 5756 5756 5757 5757 5758 5758 5759 5759 5759 5760 5760 5760 5760 5760 5760 5759 5758 5758 5757 5756 5755 5754 5753 5752 5751 5749 5748 5747 5747 5746 5744 5743 5742 5741 5740 5739
5748 5749 5750 5751 5752 5752 5753 5754 5754 5755 5755 5756 5756 5756 5756 5757 5757 5757 5757 5757 5757 5756 5755 5755 5754 5753 5751 5750 5749 5748 5747 5746 5745 5745 5744 5743 5741 5740 5739 5738 5737 5735
5746 5747 5748 5748 5749 5750 5750 5751 5751 5752 5752 5753 5753 5753 5753 5754 5754 5754 5754 5754 5753 5752 5752 5751 5750 5749 5748 5747 5746 5745 5744 5743 5742 5742 5740 5739 5738 5737 5736 5735 5733 5732
5744 5744 5745 5746 5746 5747 5748 5748 5749 5749 5750 5750 5750 5750 5750 5751 5751 5751 5751 5750 5750 5749 5748 5747 5746 5745 5744 5743 5742 5741 5740 5739 5739 5738 5737 5736 5735 5734 5732 5731 5730 5729
5741 5741 5742 5743 5743 5744 5745 5745 5746 5746 5747 5747 5747 5747 5747 5747 5747 5747 5747 5747 5746 5745 5744 5743 5742 5741 5740 5739 5738 5738 5737 5736 5735 5734 5733 5732 5731 5730 5729 5728 5727 5726